Location: *
(49.3500°N, 12.6000°E)
Time: 23:26:33
(UTC+00:00)

Cosmos 2082 Rocket - Pass Details

Date: 18 October 2019
Orbit: 832 x 855 km, 71.0° (Epoch: 13 November)

Event Time Altitude Azimuth Distance (km) Brightness Sun altitude
Rises 16:56:16 0° 334° (NNW) 3,437 5.7 -7.6°
Reaches altitude 10° 16:59:01 10° 344° (NNW) 2,496 4.8 -8.0°
Maximum altitude 17:04:07 32° 47° (NE) 1,433 3.0 -8.9°
Drops below altitude 10° 17:09:11 10° 110° (ESE) 2,475 4.1 -9.7°
Enters shadow 17:09:23 - 111° (ESE) 2,543 4.1 -9.7°
